Theta_e
332 332 331 328 325 320 314 306 300 300 299 302 302 302 299 300 301 303 305 313 319 322 324 325 323 322 322 325 328 327 325 324 326 325 324 324 323 323 322 321 321 320 320
330 329 325 323 319 317 312 303 300 300 300 300 299 298 297 297 298 300 302 307 318 320 324 326 326 325 326 324 328 325 324 322 321 319 319 319 318 318 317 317 317 317 316
327 324 322 319 317 312 305 302 300 299 299 297 297 296 295 295 296 297 298 302 307 315 323 325 325 324 327 327 330 328 327 324 321 318 317 316 315 315 314 314 314 313 313
325 323 319 316 311 305 303 301 300 299 298 296 296 297 296 296 296 296 296 299 304 307 316 322 320 322 321 326 328 328 326 323 319 317 315 314 313 312 312 312 312 312 312
324 321 317 312 308 305 302 300 299 299 297 295 295 294 295 295 296 297 295 296 302 303 305 314 314 315 319 320 323 326 326 323 319 317 314 312 311 310 311 310 310 311 311
322 319 313 308 306 303 301 300 298 297 298 297 296 293 293 293 293 293 294 297 299 300 300 300 299 302 313 316 320 322 325 324 321 318 314 311 310 309 309 309 310 310 311
320 316 309 306 304 303 300 299 297 295 292 296 294 294 293 293 292 292 293 294 296 298 298 296 295 296 297 310 314 318 322 322 320 316 313 309 308 308 308 309 310 310 312
319 316 310 307 304 302 301 298 297 293 292 295 292 291 289 292 293 293 292 293 293 296 296 295 295 294 294 296 302 313 317 320 320 317 313 309 308 307 308 309 310 310 311
317 315 312 309 305 302 300 298 298 296 293 293 293 292 287 288 289 291 291 291 293 293 294 295 295 296 294 295 302 306 313 313 318 317 314 309 307 308 309 309 309 310 310
315 313 310 308 305 302 300 299 298 297 297 294 291 292 291 291 289 287 289 289 291 292 292 291 293 294 294 294 298 301 307 309 311 313 312 308 306 306 306 307 308 309 310
313 312 310 307 305 303 301 299 298 296 297 295 293 291 290 289 289 289 286 287 288 284 286 290 290 291 293 293 293 296 303 305 304 304 303 301 301 302 304 305 306 307 308
311 310 310 308 307 304 301 300 299 298 297 297 293 292 291 291 289 288 286 285 286 285 286 287 289 288 289 291 294 296 301 302 301 300 299 299 299 300 302 303 305 306 307
308 307 307 306 305 305 303 302 301 300 297 296 295 294 292 291 291 289 288 285 284 282 286 287 287 288 290 290 291 293 298 301 301 299 298 297 298 298 299 301 302 303 304
308 307 307 305 304 303 302 302 301 300 299 298 296 294 293 292 292 291 291 287 282 284 287 287 287 288 286 289 291 293 293 298 300 299 298 298 298 299 299 300 301 302 302
308 306 306 304 304 303 302 301 298 298 299 297 295 294 293 291 291 291 291 289 290 283 284 283 288 289 287 286 289 291 290 295 299 299 298 298 299 299 298 299 299 300 301
307 305 302 301 300 301 301 299 295 292 295 294 297 293 291 292 292 290 291 289 288 288 286 282 287 288 287 288 288 290 290 292 295 297 297 297 297 297 297 297 297 298 299
300 301 299 293 294 294 294 297 296 295 294 293 293 293 291 291 292 291 289 288 287 287 287 282 285 285 285 286 285 284 284 285 286 293 294 295 295 295 295 295 296 296 297
301 299 297 296 295 295 295 297 294 294 294 292 291 291 291 291 289 289 290 289 289 287 286 283 284 284 285 284 281 284 284 285 281 288 292 293 293 293 293 294 294 294 295
297 295 297 297 297 294 294 295 295 292 293 292 291 290 289 289 289 289 288 289 289 286 283 283 282 284 284 284 283 283 284 283 283 287 291 291 291 291 291 291 291 292 292
292 294 295 294 294 293 292 291 290 290 290 291 290 291 291 290 290 289 288 289 288 287 285 284 281 283 284 283 283 281 281 279 281 283 285 286 287 288 289 289 289 289 290
287 288 288 289 289 290 290 289 290 290 290 289 289 290 290 290 290 291 289 288 288 287 286 284 282 280 281 281 281 280 279 279 279 278 278 279 279 280 280 284 284 286 288
286 287 286 288 287 286 292 293 291 289 289 289 288 288 289 287 290 291 292 292 290 288 287 286 283 283 282 282 281 279 277 277 278 277 277 277 277 277 279 279 286 288 289
285 286 286 286 286 286 293 293 291 288 288 288 288 288 287 287 288 289 291 291 291 292 292 289 286 285 283 283 283 280 277 278 277 278 279 275 274 275 278 279 287 288 289
282 283 285 285 285 286 292 293 290 288 288 288 288 288 288 287 287 288 288 288 288 288 289 287 287 285 285 284 285 283 281 279 278 277 275 273 272 273 275 275 285 287 288
281 282 283 283 284 285 290 292 289 286 286 286 287 287 288 287 288 289 287 286 286 286 289 289 289 289 289 288 285 284 280 280 277 277 275 274 274 272 272 274 277 286 287
279 280 281 281 282 283 287 289 288 286 285 284 285 286 286 287 288 290 287 286 285 285 285 286 287 288 288 287 287 286 283 280 277 275 277 275 273 271 271 273 273 273 275
Wind_Speed
11 10 10 11 10 9 10 9 6 7 7 7 8 10 6 7 5 3 2 7 4 7 9 9 8 7 8 10 12 13 10 9 12 12 11 9 8 9 10 9 8 8 7
11 11 11 10 10 10 8 9 9 7 6 8 7 8 7 6 6 5 3 3 4 4 5 9 9 8 9 11 13 10 11 9 8 6 7 6 7 8 8 8 7 7 6
14 14 11 10 10 10 11 9 8 6 7 4 8 7 6 6 5 6 4 2 3 5 5 6 9 8 6 11 13 12 13 12 9 7 6 6 6 6 6 6 6 5 5
16 14 12 11 10 11 9 11 9 8 8 6 6 5 5 5 6 6 4 3 2 3 8 11 8 6 3 6 7 12 14 14 9 7 5 5 5 5 5 5 4 4 4
16 13 12 11 10 8 11 9 5 9 10 7 7 5 4 4 5 4 5 5 4 3 3 7 8 7 6 4 5 7 11 13 12 8 5 3 4 4 4 4 3 3 3
15 12 11 14 13 10 9 9 6 4 4 10 9 6 4 4 3 4 3 2 3 4 3 4 3 3 5 6 1 7 8 10 12 10 6 3 3 3 3 3 3 4 3
15 15 12 14 11 13 13 13 10 11 3 7 8 5 4 4 4 3 3 2 3 3 4 3 1 1 2 5 6 1 4 9 11 9 5 1 1 2 2 3 5 5 6
15 14 17 16 16 11 11 13 12 7 3 6 5 4 4 1 1 1 2 3 3 3 3 3 2 1 0 1 1 2 5 8 10 12 8 3 1 1 3 5 6 6 7
14 16 16 15 17 15 13 15 14 11 9 4 4 6 4 5 4 1 2 2 4 2 3 4 3 1 1 0 3 5 6 4 7 11 11 6 2 3 5 7 8 8 9
12 11 15 16 19 16 15 14 12 8 13 12 3 2 4 6 5 2 1 1 2 4 4 3 4 3 2 2 2 4 6 9 10 6 8 6 1 4 6 7 8 9 10
9 8 12 14 14 14 15 16 15 11 10 10 6 5 3 3 3 5 4 3 1 2 3 3 4 4 4 3 3 2 4 6 9 8 6 4 1 3 5 7 8 9 11
8 9 11 12 12 10 13 13 13 13 11 10 4 5 5 6 4 4 4 3 2 2 1 2 4 4 4 4 4 5 5 6 6 6 5 3 1 3 5 7 9 10 11
6 9 8 10 9 11 11 9 11 11 11 10 12 8 4 4 5 4 4 3 3 1 1 2 4 3 4 4 4 7 6 6 7 6 4 2 2 3 5 7 8 10 11
10 12 13 12 11 5 8 10 10 10 10 8 10 5 3 4 4 4 6 6 2 1 1 3 2 4 3 4 6 9 5 8 8 7 4 3 4 6 8 10 11 12 13
10 13 13 13 13 13 7 5 4 8 11 10 10 8 5 3 3 3 3 4 6 4 4 3 3 3 3 3 5 5 5 8 9 9 7 7 9 10 10 11 13 13 13
11 14 16 13 14 14 14 11 5 2 5 6 8 9 6 4 5 3 4 3 3 5 2 2 2 1 3 3 4 5 5 7 6 7 5 7 9 10 12 13 13 13 14
9 9 10 10 12 12 12 13 11 10 6 5 3 9 9 7 6 5 3 3 3 4 4 0 1 1 2 3 2 2 2 3 2 3 4 6 7 9 12 14 14 15 16
11 12 11 12 12 10 11 13 12 10 12 10 7 5 7 6 7 6 6 6 5 4 5 5 2 2 1 2 2 2 1 2 2 5 7 7 8 9 11 14 16 16 17
7 7 9 11 13 14 11 9 9 9 10 10 11 9 5 7 7 6 6 7 5 3 3 4 4 2 1 2 2 1 2 2 3 5 7 8 8 10 12 13 15 16 16
6 6 6 7 8 9 11 11 11 10 9 9 9 10 9 10 9 9 7 8 6 6 3 4 3 3 2 2 2 3 3 2 2 2 4 5 6 9 12 11 12 13 13
5 4 4 3 6 6 7 10 10 11 11 9 8 8 9 11 12 12 8 7 9 7 5 4 3 3 3 3 5 3 2 2 2 2 1 1 1 2 4 7 7 8 8
7 6 3 5 5 3 8 11 9 9 8 10 10 9 9 11 13 16 16 17 15 12 10 6 3 4 5 4 4 4 4 3 2 1 2 2 1 2 2 2 6 6 6
7 8 6 5 3 3 11 13 12 6 8 6 7 7 6 5 7 8 13 15 16 19 13 12 9 7 6 8 7 4 3 3 3 2 1 2 2 2 1 3 7 3 3
8 6 6 5 4 3 3 10 12 6 5 6 7 9 9 8 9 9 9 9 8 8 7 6 6 6 5 9 9 5 4 5 3 2 1 1 1 2 3 2 6 4 6
7 7 4 6 5 4 4 4 8 4 4 5 5 6 8 8 12 15 9 8 7 5 7 11 12 15 16 17 12 8 5 5 2 2 3 3 0 2 2 3 3 7 7
6 5 6 6 6 4 7 3 6 3 3 3 3 4 8 8 14 18 10 10 10 8 10 9 9 13 15 14 19 8 9 8 4 1 3 3 2 2 2 2 3 3 3
Wind_Direction
179 167 168 151 153 156 145 139 135 132 127 123 126 126 126 119 119 109 90 105 94 150 149 143 146 154 156 155 150 132 117 111 87 78 83 84 86 77 69 61 60 59 56
173 169 160 155 154 155 150 141 143 138 139 134 129 117 131 125 127 120 107 99 96 32 171 148 137 142 154 163 160 150 136 118 103 111 93 87 81 80 75 69 66 60 51
175 159 154 156 157 142 137 123 117 109 113 126 119 118 120 126 124 123 120 108 65 32 78 145 153 140 158 164 169 152 129 118 118 109 101 80 71 69 69 67 63 57 48
172 168 157 150 149 141 134 145 146 148 137 135 130 117 119 117 119 121 120 109 84 63 66 81 81 124 126 174 161 172 153 137 132 133 97 76 69 66 63 56 52 47 39
172 166 155 141 138 133 147 118 160 155 146 127 116 102 91 102 123 120 130 129 125 100 84 87 80 62 57 30 167 181 161 153 151 151 120 88 73 63 55 39 26 14 21
167 160 144 135 131 139 147 138 139 77 138 140 114 84 85 86 80 110 137 137 135 118 99 96 76 44 49 36 67 168 148 146 131 128 116 102 80 75 53 16 0 341 328
168 158 139 131 137 150 161 157 138 142 114 131 107 89 62 77 92 112 130 129 145 140 128 113 93 51 24 48 37 2 159 143 137 123 123 176 74 57 19 351 341 333 323
174 161 159 147 147 145 160 164 160 141 115 189 119 106 134 54 60 191 148 157 183 148 148 141 152 151 58 43 28 313 244 171 176 165 155 176 165 331 329 328 326 324 323
174 171 157 158 159 150 179 175 168 163 150 180 168 137 123 197 127 311 227 185 172 195 158 149 153 171 162 355 69 59 68 50 206 173 160 167 229 311 322 322 321 318 315
166 168 158 165 161 161 175 180 175 170 152 165 108 77 64 131 156 160 272 229 208 201 179 174 164 173 178 147 102 96 80 80 78 115 150 149 265 314 317 318 317 316 310
156 184 160 158 168 171 175 178 176 166 169 159 159 152 104 66 70 133 160 197 250 231 206 179 181 173 184 171 154 146 120 106 101 100 109 110 66 321 315 314 313 311 309
153 156 163 157 171 170 177 180 179 172 170 167 147 143 152 160 166 139 119 142 174 252 198 200 181 195 183 178 180 182 155 137 129 123 120 113 88 318 315 314 312 309 308
156 167 161 154 162 171 170 180 183 181 175 174 179 170 151 150 134 124 107 110 138 306 236 229 212 183 181 180 177 170 175 166 161 153 156 171 253 292 307 315 315 312 310
180 176 162 158 137 148 159 182 195 189 178 180 174 163 139 146 140 143 141 136 66 83 214 223 202 199 183 175 181 175 175 176 177 179 191 226 262 277 294 300 301 304 307
170 162 158 159 150 145 151 167 208 189 186 178 175 168 163 155 127 125 129 140 144 151 238 239 164 168 183 167 183 164 170 187 189 200 224 251 262 271 281 289 294 295 298
164 168 160 160 160 168 166 171 181 149 181 195 188 176 164 155 160 147 143 134 112 136 169 151 173 139 145 174 193 167 180 185 208 225 243 263 273 275 280 291 292 291 293
144 163 160 143 158 163 169 179 176 169 185 173 228 183 188 154 168 165 139 121 124 125 148 99 88 78 90 139 140 135 132 142 207 235 233 255 273 279 283 284 286 287 289
166 163 161 159 158 168 169 184 174 167 179 172 183 196 193 167 166 159 166 168 163 160 128 147 132 138 151 138 167 159 192 189 196 237 241 253 265 277 280 281 285 287 287
146 142 155 170 173 169 170 182 181 176 186 188 183 183 201 178 172 169 167 172 152 136 117 126 140 128 121 149 134 129 167 221 226 235 245 259 274 282 285 285 287 286 285
137 143 163 156 174 180 167 172 168 179 189 191 180 187 173 191 189 173 171 175 156 153 134 115 127 135 146 139 117 155 209 194 197 213 244 244 260 271 277 282 290 291 288
62 82 99 114 138 181 167 169 175 178 182 179 184 180 188 197 177 178 164 167 161 165 155 153 133 137 157 159 190 165 139 121 215 170 163 277 264 291 289 291 292 293 287
34 50 68 129 132 143 166 183 178 170 184 179 187 183 171 175 181 176 181 176 178 172 182 168 149 177 175 160 144 156 128 119 228 252 103 290 75 297 306 323 301 304 302
31 40 34 45 64 113 166 168 169 159 168 172 166 161 154 179 166 174 190 183 188 190 184 185 182 181 163 170 139 130 135 135 154 167 109 289 12 296 270 324 328 336 2
28 31 29 41 49 8 163 175 165 160 162 163 181 162 167 171 173 165 176 185 185 198 187 172 168 150 139 149 149 142 133 106 85 129 151 202 0 285 326 318 344 63 66
25 26 26 28 35 25 34 178 139 122 148 164 174 148 165 169 174 169 165 176 181 170 152 142 138 138 141 142 135 120 141 140 155 185 192 143 139 297 342 315 326 51 83
21 22 31 19 21 16 6 348 149 133 132 117 133 152 167 171 178 179 180 178 185 180 148 144 148 148 144 157 164 168 155 159 123 130 204 157 127 109 2 307 314 348 7